STARLINK-1267, 45384

Orbit data source: Space-Track

STARLINK-1267, 45384 is a payload satellite owned by SpaceX/Seattle (US) in LEO that was launched on Wed, 18 Mar 2020 UTC via an FALCON 9 launch vehicle from the Air Force Eastern Test Range (AFETR). Payload-class satellites include a variety of spacecraft equipped with specific instruments for various scientific and technological missions. These include communications satellites like Starlink; space stations such as the ISS; scientific satellites like the Hubble; Earth observation satellites from companies like Planet Labs, Umbra, and HawkEye 360; GPS; miniature CubeSats for education and research; and military/defense satellites.

Loading next visibility...
Identifier
45384, 2020-019AA
Orbit
LEO
Country
Flag of USUS
Related business
Manufacturer
SpaceX/Seattle
Mission
Partially operational Commercial Communications
Bus & Motor
STARLINK, Unknown motor
Mass
260 kg wet, ~248 kg dry
Launch date (UTC)
2020-03-18 (6 years ago)
Launch vehicle
FALCON 9
Launch site
Air Force Eastern Test Range (AFETR)
Object type
Payload
Rocket body
Debris
Shape & HBR
Box + 1 Pan, 10.1 m
Radar Cross Section
13.562 m², Large (>1 m²)

Expand to show TLE details & history
Last TLE update: 12 hours ago

TLE from 12 hours ago
0 STARLINK-1267
1 45384U 20019AA  26129.47155594  .00068206  00000-0  79787-3 0  9999
2 45384  53.0446 192.9829 0007217   5.0155 355.0928 15.60935966339749
Epoch: 2026-05-09T11:19Z
TLE epoch observation values (Epoch: 2026-05-09T11:19:02.433Z)
Latitude
-0.00006°
Longitude
155.93421°
Altitude
380.988 km
Speed
7.685 km/s
True Right ascension
12h 51m 55s
True Declination
0° 00' 00"
Sunlit
Object was in full shadow at epoch
Visualization orbit readout
Latitude
Unknown
Longitude
Unknown
Altitude
Unknown
Speed
Unknown
Apparent Right ascension
Unknown
Apparent Declination
Unknown
Sunlit
N/A
Visualization observer readout
Local Sidereal Time
07:06:17
Azimuth
Unknown
Elevation
Unknown
Doppler factor
Unknown
Orbital elements
Apogee altitude
390.112 km
Perigee altitude
380.35 km
Semi-major axis
6,763.368 km
Eccentricity
0.00072
Inclination
53.0446°
RAAN
192.9829°
Arg. of periapsis
5.0155°
True anomaly
355.08572°
Mean anomaly
355.0928°
Eccentric anomaly
355.08926°
Mean motion
3.9021 °/min
Orbital period
92.26 mins
BSTAR
0.00079787
Loading maneuver chart data...
Computing Atmospheric mass density...

Documentation

Showing up to 5 results
|